www.pogodaiklimat.ru

Погода и климат >> Архив погоды >> Россия >> Якутия >> Якутск


АРХИВ ПОГОДЫ в Якутске

Время (UTC), дата Ветер
(напр.,м/с)
 
Видим.   Явления Облачность Т
(С)
Тd
(С)
f
(%)
Тe
(С)
Тes
(С)
Комфортность P
(гПа)
Po
(гПа)
Тmin
(С)
Tmax
(С)
R
(мм)
R24
(мм)
S
(см)
03 5.12 С 2 2000 м дымка {снег} 10/0
[Cs]
-38.6 -41.4 75 -48 -47 опасность
обморожения
1022.1 1007.2
06 5.12 С 1 1000 м дымка {снег} 10/0
[Cs]
-39.1 -41.9 75 -44 -44 опасность
обморожения
1022.9 1008.0
09 5.12 СВ 3 2000 м дымка 10/0
[Ci fib]
-40.3 -43.2 74 -52 -52 опасность
обморожения
1024.2 1009.2
12 5.12 С 1 1000 м дымка 10/0
[Ci fib]
-40.1 -43.0 74 -45 -45 опасность
обморожения
1024.7 1009.7 -37.9 0.0
15 5.12 СЗ 1 1000 м дымка 10/0
[Ci fib]
-39.5 -42.4 74 -45 -45 опасность
обморожения
1025.7 1010.7
18 5.12 С 1 500 м туман 10/0
[Ci fib]
-39.5 -42.3 74 -45 -45 опасность
обморожения
1026.7 1011.7
21 5.12 З 1 500 м переохл. туман 10/0
[Ci fib]
-39.3 -42.2 74 -44 -44 опасность
обморожения
1028.0 1013.0
00 6.12 ЮЗ 1 500 м переохл. туман 10/0
[Ci fib]
-39.1 -41.9 75 -44 -44 опасность
обморожения
1028.9 1013.9 -40.1 15
03 6.12 ЮЗ 1 500 м слабый снег {туман} туман 10/0
[Cs]
-38.2 -41.0 75 -43 -43 опасность
обморожения
1029.5 1014.6
06 6.12 Ю 1 500 м слабый снег {туман} туман 10/0
[Cs]
-38.1 -40.9 75 -43 -43 опасность
обморожения
1030.4 1015.5
09 6.12 Ю 1 4000 м слабый снег {туман} 10/0
[Cs]
-37.3 -40.0 76 -42 -42 опасность
обморожения
1031.4 1016.5
12 6.12 Ю 1 4000 м слабый снег {туман} 10/0
[Cs]
-36.7 -39.4 76 -42 -42 опасность
обморожения
1031.0 1016.1 -36.6 0.4
15 6.12 Ю 1 4000 м слабый снег {туман} 10/0
[Cs]
-36.7 -39.4 76 -42 -42 опасность
обморожения
1031.0 1016.1 -36.6 0.4
18 6.12 ЮВ 1 10 км слабый снег 10/0
[Cs]
-35.5 -38.2 76 -40 -40 опасность
обморожения
1029.8 1015.0
21 6.12 В 1 10 км слабый снег 10/0
[Cs]
-35.3 -38.0 76 -40 -40 опасность
обморожения
1028.2 1013.5
00 7.12 В 1 20 км слабый снег 10/0
[Ac trans Cs]
-35.8 -38.5 76 -41 -41 опасность
обморожения
1026.4 1011.7 -36.7 0.3 15
03 7.12 В 2 20 км слабый снег 10/0
[Ac trans Cs]
-35.6 -38.3 76 -44 -44 опасность
обморожения
1024.8 1010.0
06 7.12 В 2 20 км слабый снег 10/0
[Ac trans Cs]
-34.5 -37.2 76 -43 -43 опасность
обморожения
1023.2 1008.5
09 7.12 В 2 20 км слабый снег 10/0
[Ac trans Cs]
-34.0 -36.7 76 -42 -42 опасность
обморожения
1022.6 1008.0
12 7.12 СВ 2 20 км слабый снег 10/0
[Ac trans Cs]
-33.9 -36.6 76 -42 -42 опасность
обморожения
1021.6 1007.0 -33.9 0.3
15 7.12 В 2 20 км слабый снег 10/0
[Ac trans Cs]
-34.5 -37.2 76 -43 -43 опасность
обморожения
1021.2 1006.6
18 7.12 СВ 2 20 км слабый снег 10/0
[Ac trans Cs]
-35.0 -37.7 76 -43 -43 опасность
обморожения
1020.6 1006.0
21 7.12 СВ 2 20 км слабый снег 10/0
[Ac trans Cs]
-34.8 -37.4 77 -43 -43 опасность
обморожения
1019.8 1005.2
00 8.12 СВ 2 10 км дымка {снег} 10/0
[Ac trans Cs]
-35.6 -38.3 76 -44 -44 опасность
обморожения
1019.9 1005.3 -35.6 0.2 15
03 8.12 СВ 3 4000 м дымка 10/0
[Ac trans Ci fib]
-34.0 -36.6 77 -44 -44 опасность
обморожения
1019.5 1005.0
06 8.12 СВ 2 10 км дымка 10/0
[Ac trans Ci fib]
-33.6 -36.1 78 -42 -42 опасность
обморожения
1019.8 1005.3
09 8.12 С 2 20 км дымка 8/0
[Ac trans Ci fib]
-34.1 -36.7 77 -42 -42 опасность
обморожения
1020.7 1006.1
12 8.12 С 2 20 км 4/0
[Ci fib]
-34.7 -37.3 77 -43 -43 опасность
обморожения
1021.5 1006.8 -33.2
15 8.12 СЗ 1 20 км слабый снег 10/0
[Ac trans Ci fib]
-37.0 -39.7 76 -42 -42 опасность
обморожения
1022.4 1007.6
18 8.12 СЗ 1 20 км {снег} 6/0
[Ac trans Ci fib]
-37.7 -40.4 76 -43 -43 опасность
обморожения
1023.6 1008.8
21 8.12 З 1 20 км 6/0
[Ac trans Ci fib]
-37.2 -39.9 76 -42 -42 опасность
обморожения
1025.1 1010.3
00 9.12 ЮЗ 1 1000 м дымка 6/0
[Ci fib]
-37.7 -40.4 76 -43 -43 опасность
обморожения
1027.2 1012.3 -38.0 0.0 15
03 9.12 Ю 1 1000 м дымка 3/0
[Ci fib]
-37.2 -39.9 76 -42 -42 опасность
обморожения
1028.5 1013.7 -38.2
06 9.12 штиль 0 2000 м дымка 4/0
[Ci fib]
-37.3 -40.0 76 -37 -37 опасность
обморожения
1030.3 1015.4
09 9.12 ЮЗ 1 20 км 3/0
[Ci fib]
-35.8 -38.5 76 -41 -41 опасность
обморожения
1023.2 1017.4
12 9.12 З 1 20 км ясно -35.0 -37.8 75 -40 -40 опасность
обморожения
1033.7 1018.9 -35.0
15 9.12 ЮЗ 1 20 км ясно -35.1 -37.8 76 -40 -40 опасность
обморожения
1035.1 1020.3
18 9.12 З 1 20 км ясно -34.9 -37.7 75 -40 -40 опасность
обморожения
1036.4 1021.5
21 9.12 ЮЗ 2 20 км ясно -35.3 -38.1 75 -44 -44 опасность
обморожения
1038.1 1023.2
00 10.12 З 2 50 км 8/0
[Ci fib]
-34.7 -37.6 75 -43 -43 опасность
обморожения
1039.7 1024.8 -35.4 15
03 10.12 З 2 50 км 10/0
[Ac trans Ci fib]
-34.6 -37.5 75 -43 -43 опасность
обморожения
1040.9 1026.0
06 10.12 З 2 50 км 10/0
[Ac trans Ci fib]
-33.5 -36.5 74 -42 -42 опасность
обморожения
1042.0 1027.1
09 10.12 З 1 20 км слабый снег 10/0
[Ac trans Ci fib]
-33.4 -36.4 74 -38 -38 опасность
обморожения
1043.6 1028.7
12 10.12 ЮЗ 2 20 км слабый снег 10/0
[Ac trans Ci fib]
-33.9 -37.0 73 -42 -42 опасность
обморожения
1044.7 1029.8 -33.3 0.0
15 10.12 ЮЗ 1 20 км слабый снег 10/0
[Ac trans Ci fib]
-34.5 -37.4 75 -39 -39 опасность
обморожения
1045.1 1030.1
18 10.12 ЮЗ 1 50 км {снег} 6/0
[Ci fib]
-36.4 -39.0 77 -41 -41 опасность
обморожения
1046.3 1031.2
21 10.12 СЗ 1 4000 м дымка 6/0
[Ci fib]
-38.2 -40.9 76 -43 -43 опасность
обморожения
1047.1 1031.9
00 11.12 З 1 20 км 10/0
[Ci fib]
-36.3 -39.3 74 -41 -41 опасность
обморожения
1048.0 1032.9 -38.3 0.0 15
03 11.12 З 1 20 км 10/0
[Ci fib]
-35.6 -38.7 73 -40 -40 опасность
обморожения
1047.6 1032.6
06 11.12 штиль 0 50 км 10/0
[Ci fib]
-35.6 -38.7 73 -36 -36 опасность
обморожения
1048.2 1033.1
09 11.12 штиль 0 20 км 10/0
[Ci fib]
-37.7 -40.4 76 -38 -38 опасность
обморожения
1047.7 1032.5
12 11.12 Ю 1 10 км дымка 10/0
[Ci fib]
-37.5 -40.2 76 -42 -42 опасность
обморожения
1047.9 1032.7 -35.4
15 11.12 З 1 1000 м дымка 10/0
[Ci fib]
-38.2 -40.9 76 -43 -43 опасность
обморожения
1046.6 1031.3
18 11.12 З 1 1000 м дымка 10/0
[Ci fib]
-39.5 -42.2 75 -45 -45 опасность
обморожения
1046.5 1031.2
21 11.12 штиль 0 1000 м дымка 10/0
[Ci fib]
-39.4 -42.2 75 -39 -39 опасность
обморожения
1045.8 1030.5
00 12.12 З 1 500 м туман 10/0
[Ci fib]
-39.8 -42.6 74 -45 -45 опасность
обморожения
1045.4 1030.1 -40.3 15

 

Местоположение метеостанции Якутск (Якутия, Россия): широта 62.00 долгота 129.60 высота над уровнем моря 101 м.

В архиве по умолчанию представлена погода в Якутске за последнюю неделю. Архивные данные за месяц целиком и за предыдущие месяцы, начиная с января 2011 года, Вы можете получить, выбрав интересующий диапазон дат из раскрывающегося списка и нажав кнопку "Ввод!".

Внимание! Время в таблицах - всемирное. Для получения местного времени необходимо прибавить поправку, которая в Якутске равна 9 ч.

Смотрите также архив погоды в соседних городах и на ближайших метеорологических станциях:

Погода в Покровске (Якутия, Россия) (64 км)
Погода в Намцах (Якутия, Россия) (80 км)
Погода в Бердигестяхе (Якутия, Россия) (138 км)
Погода в Чурапче (Якутия, Россия) (157 км)
Погода в Батамае (Якутия, Россия) (169 км)
Погода в Тегюльте (Якутия, Россия) (172 км)
Погода в Амге (Якутия, Россия) (173 км)
Погода в Верхоянском Перевозе (Якутия, Россия) (191 км)
Погода в Ытык-Кюёле (Якутия, Россия) (207 км)
Погода в Сеген-Кюели (Якутия, Россия) (225 км)

Пояснения к столбцам:

Ветер - указаны скорость ветра в м/с - средняя за 10 мин, порывы в срок и между сроками (в фигурных скобках) и направление, откуда дует ветер: С - северный, СВ - северо-восточный, В - восточный, ЮВ - юго-восточный, Ю - южный, ЮЗ - юго-западный, З - западный, СЗ - северо-западный.
Видимость - горизонтальная дальность видимости в метрах или километрах. При видимости от 1 до 10 км при отсутствии осадков обычно наблюдается дымка, при ухудшении видимости до 1 км и менее - туман. В сухую погоду видимость может ухудшаться дымом, пылью или мглою.
Явления - указаны атмосферные явления, наблюдавшиеся в срок или в последний час перед сроком; фигурными скобками обозначены явления, наблюдавшиеся между сроками (за 1-3 часа до срока); квадратными скобками обозначены град или гололедные отложения с указанием их диаметра в мм.
Облачность - указаны через наклонную черту общая и нижняя облачность в баллах и высота нижней границы облаков в метрах; квадратными скобками обозначены формы облаков: Ci - перистые, Cs - перисто-слоистые, Cc - перисто-кучевые, Ac - высококучевые, As - высокослоистые, Sc - слоисто-кучевые, Ns - слоисто-дождевые, Cu - кучевые, Cb - кучево-дождевые. Подробнее классификацию облаков см. в Атласе облаков (PDF).
T - Температура воздуха - температура, измеренная на высоте 2 м над землей.
Td - Температура точки росы - температура, при понижении до которой содержащийся в воздухе водяной пар достигнет насыщения.
f - Относительная влажность воздуха - влажноcть воздуха, измеренная на высоте 2 м над землей.
Te - Эффективная температура - температура, которую ощущает одетый по сезону человек в тени. Характеристика душности погоды. При расчете учитывается влияние влажности воздуха и скорости ветра на теплоощущения человека.
Tes - Эффективная температура на солнце - температура, которую ощущает человек, с поправкой на солнечный нагрев. Характеристика знойности погоды. Зависит от высоты солнца над горизонтом, облачности и скорости ветра. Ночью, в пасмурную погоду, а также при ветре 12 м/с и более поправка равна нулю.
P - Атмосферное давление - приведенное к уровню моря атмосферное давление.
Po - Атмосферное давление - измеренное на уровне метеостанции атмосферное давление.
Tmin - Минимальная температура - минимум температуры воздуха на высоте 2 м над землей.
Tmax - Максимальная температура - максимум температуры воздуха на высоте 2 м над землей.
R - Количество осадков - Количество выпавших осадков за период времени, мм. При наведении курсора мыши на число - период времени, за который выпало указанное количество осадков.
R24 - Количество осадков - Количество выпавших осадков за 24 часа, мм.
S - Снежный покров - Высота снежного покрова, см. При наведении курсора мыши на число - состояние снежного покрова и степень покрытия местности в баллах.